Temperature
14 14 13 13 13 12 12 12 12 12 12 12 12 12 12 12 12 12 12 12 12 12 13 13 13 13 14 14 14 14 14 14 14 15 16 16 16 16 17 17 16 16 16
14 14 13 13 13 13 12 12 12 12 12 12 12 11 11 11 11 11 11 12 12 12 12 13 13 13 13 13 14 14 14 14 14 15 15 15 16 16 16 16 16 16 16
15 14 13 13 13 13 12 12 12 11 11 11 11 11 11 11 11 11 11 11 12 12 12 12 13 13 13 13 13 13 14 14 14 14 14 15 15 15 15 16 16 16 16
15 14 14 13 13 13 12 12 12 11 11 11 11 11 11 11 11 11 11 11 11 12 12 12 12 12 12 13 13 13 13 13 14 14 14 14 15 15 15 15 15 15 15
15 14 14 13 13 13 12 12 11 11 11 11 11 11 11 11 11 11 11 11 11 11 12 12 12 12 12 12 13 13 13 13 13 13 14 14 14 14 15 15 15 15 15
15 15 14 14 13 13 12 12 12 11 11 11 11 11 11 11 11 11 11 11 11 11 11 12 12 12 12 12 12 13 13 13 13 13 13 13 14 14 14 14 14 14 14
16 15 15 14 14 13 12 12 12 11 11 11 11 11 11 11 11 11 11 11 11 11 11 11 12 12 12 12 12 12 13 13 13 13 13 13 14 14 14 14 14 14 14
17 16 15 15 14 13 13 12 12 12 11 11 11 11 11 11 11 11 11 11 11 11 11 11 11 11 12 12 12 12 12 13 13 13 13 13 13 14 14 14 14 14 14
17 16 16 15 14 14 13 13 12 12 12 12 11 11 11 11 11 11 11 11 11 11 11 11 11 11 12 12 12 12 12 12 12 13 13 13 13 13 13 13 13 13 13
17 17 16 15 15 14 14 14 13 13 12 12 12 12 11 11 11 11 11 11 11 11 11 11 11 11 11 12 12 12 12 12 12 12 13 13 13 13 13 13 13 13 13
17 17 16 16 15 15 15 14 14 13 13 12 12 12 12 12 12 12 12 11 11 11 11 11 11 11 11 11 12 12 12 12 12 12 12 12 13 13 13 13 13 13 13
17 17 16 16 16 15 15 15 14 14 13 13 13 13 12 12 12 12 12 11 11 11 11 11 11 11 11 12 12 12 12 12 12 12 12 12 12 12 12 13 13 13 13
17 16 16 16 16 15 15 15 15 14 14 13 13 13 13 12 12 12 12 12 11 11 11 11 11 11 12 12 12 12 12 12 12 12 12 12 12 12 12 12 12 12 12
16 16 16 16 16 16 16 15 15 15 14 14 14 13 13 13 12 12 12 12 12 11 11 11 12 12 12 12 12 12 12 12 12 12 12 12 12 12 12 12 12 12 12
15 15 15 15 15 15 15 15 15 15 15 15 14 14 14 13 13 12 12 12 12 12 12 12 12 12 12 12 12 12 12 12 12 11 11 11 12 11 11 12 12 12 12
14 14 14 14 14 15 15 15 15 15 15 15 15 14 14 14 13 13 13 12 12 12 12 12 12 11 11 11 12 12 12 12 12 11 11 11 11 11 11 11 11 11 11
13 12 13 13 13 13 14 14 14 14 14 14 14 14 14 14 14 13 13 12 12 12 12 12 12 11 11 11 11 11 12 12 12 11 11 11 11 11 11 11 11 11 11
11 11 11 12 12 12 12 12 13 13 13 14 14 14 14 14 14 13 13 13 12 12 12 12 12 12 11 11 11 11 11 12 11 11 11 11 11 11 11 11 11 11 11
10 10 10 10 11 11 11 11 12 12 13 13 13 14 14 14 14 13 13 13 13 12 12 12 12 11 11 11 11 11 11 11 11 11 11 11 11 11 11 11 11 11 11
9 9 9 9 9 10 10 10 10 11 11 12 12 12 13 13 13 13 13 13 12 12 12 12 12 11 11 11 11 11 11 11 11 11 11 11 11 11 11 11 11 11 11
8 8 8 8 8 8 9 9 9 9 10 10 10 11 11 11 12 12 12 12 12 12 12 12 12 11 11 11 11 11 11 11 11 11 11 11 11 11 11 11 11 11 11
7 7 7 7 7 7 8 8 8 8 8 8 9 9 10 10 10 10 11 11 11 11 11 11 11 11 11 11 11 11 11 11 11 11 11 11 11 11 11 11 11 11 11
7 7 7 7 7 7 7 7 7 7 7 7 7 8 8 8 8 8 9 9 10 10 10 10 11 11 11 11 11 11 11 11 11 11 11 11 11 11 11 11 11 11 11
6 6 6 6 6 6 6 6 6 6 6 6 6 6 6 7 7 7 7 8 8 9 9 9 9 9 10 10 10 10 10 10 10 11 11 11 11 11 11 11 11 11 11
6 6 6 6 6 6 6 6 5 5 5 5 5 5 5 5 6 6 6 6 7 7 8 8 8 8 9 9 9 9 9 9 10 10 10 10 11 11 11 11 11 11 10
6 6 6 6 6 5 5 5 5 5 5 5 5 4 4 4 4 4 4 5 5 5 6 6 7 7 7 7 8 8 8 9 9 9 9 10 10 10 10 10 10 10 10
Wind_Speed
2 3 4 2 2 4 3 3 4 5 6 6 5 6 7 6 6 5 6 6 6 6 6 5 5 5 4 5 5 6 6 6 7 5 3 3 5 6 6 9 11 13 17
1 3 4 3 3 4 4 4 5 6 6 6 5 6 6 7 6 6 7 7 7 7 6 6 5 5 5 4 4 5 6 6 7 7 5 4 6 6 7 7 7 10 12
0 2 4 4 3 4 4 5 6 6 6 7 6 6 6 6 6 7 7 8 8 7 7 6 5 5 4 4 4 4 5 6 6 6 5 4 4 4 5 6 6 5 8
1 2 3 3 4 3 4 4 5 6 7 6 6 7 6 6 6 7 8 9 9 8 7 6 6 5 4 3 4 4 4 5 5 5 5 4 4 4 5 6 5 5 6
1 2 1 2 3 3 3 4 4 6 7 6 7 7 7 6 6 7 8 9 9 9 8 6 5 4 3 3 3 3 3 3 4 4 4 4 4 4 6 5 6 5 5
3 3 2 1 2 3 4 3 4 5 6 5 6 6 6 6 7 8 8 8 9 9 8 6 6 4 4 5 5 5 5 5 4 4 4 5 6 6 6 6 6 5 5
4 3 3 2 1 2 4 4 5 6 5 5 5 5 6 5 7 9 11 8 8 8 8 7 6 5 5 4 5 6 7 9 9 7 6 6 6 6 7 8 7 6 5
4 3 2 3 3 3 4 5 5 4 4 5 5 5 6 5 5 7 11 8 7 7 7 6 6 5 5 6 5 5 5 4 5 6 6 6 5 5 6 7 7 5 3
3 3 2 2 3 4 4 5 5 4 4 5 6 6 6 4 2 4 7 7 6 7 6 6 6 5 7 7 5 5 5 4 3 4 5 5 6 6 5 5 6 6 4
2 3 3 3 3 5 5 5 4 4 5 5 6 6 6 5 3 2 5 4 6 6 6 5 5 6 8 8 4 4 5 5 4 4 3 4 4 5 7 7 7 7 4
2 2 2 3 5 6 6 5 5 5 6 6 7 7 6 5 4 4 2 3 5 6 6 5 4 7 8 8 6 4 5 5 5 4 3 3 2 3 4 5 6 7 6
0 3 4 6 6 6 6 6 6 6 7 7 7 7 5 4 5 5 5 5 5 5 6 5 4 8 9 9 6 6 8 7 4 3 3 2 2 2 3 4 5 5 5
4 5 6 7 7 7 7 7 6 6 6 6 6 5 4 3 4 8 8 8 8 5 5 8 10 11 10 7 7 8 6 4 3 3 2 2 2 2 2 3 3 4 4
7 6 6 6 7 7 7 6 6 6 6 5 5 5 4 3 2 3 3 4 5 5 5 8 10 10 7 7 7 5 3 3 2 2 2 2 1 0 1 2 3 4 4
8 7 7 7 7 6 6 6 7 7 7 7 6 5 4 4 3 4 2 2 1 3 5 5 5 5 4 4 3 3 2 2 1 1 1 1 0 1 1 1 3 4 4
7 7 6 6 7 6 6 6 9 10 12 14 13 10 7 7 7 8 7 6 5 5 4 5 6 6 5 4 3 3 2 2 2 1 1 1 1 1 2 2 2 4 5
8 7 6 7 7 7 7 7 7 8 11 12 13 13 13 12 10 9 8 6 7 5 4 6 6 6 5 4 3 3 3 3 2 2 2 1 1 2 3 3 3 4 4
8 8 8 7 7 7 7 7 7 7 6 5 9 15 16 16 14 11 8 4 5 5 6 7 7 6 5 5 4 4 3 3 3 3 3 3 3 3 3 4 4 5 5
7 6 6 7 7 7 7 7 7 7 7 6 5 5 9 11 9 8 7 5 7 7 6 7 7 6 6 5 5 5 4 4 4 4 4 4 4 4 4 4 5 7 6
6 10 9 7 7 7 8 8 8 8 8 8 7 7 3 0 2 4 6 7 8 8 8 7 7 6 6 6 5 5 5 5 5 5 5 5 5 5 5 6 6 6 6
6 8 11 8 7 7 8 8 8 8 9 9 9 11 12 4 4 4 3 5 7 8 8 8 7 6 6 5 5 6 7 6 5 6 6 6 6 5 5 5 6 6 6
6 6 6 7 7 7 8 7 8 8 10 10 9 10 16 10 9 9 8 7 6 5 4 5 5 5 6 6 6 6 7 7 7 6 6 7 7 7 6 6 6 6 6
6 6 6 6 6 8 8 7 7 8 8 9 9 10 10 10 10 10 11 11 11 11 10 8 6 5 4 4 5 6 7 7 7 7 7 7 7 7 7 8 9 8 8
6 6 6 6 5 6 6 7 7 7 7 8 8 8 8 9 9 10 10 10 11 11 11 11 11 13 14 10 6 4 4 5 6 7 9 8 8 7 8 7 8 9 9
5 5 5 5 5 5 6 6 6 6 6 6 6 6 7 7 8 8 8 8 10 11 13 12 11 13 17 17 14 12 13 12 10 7 7 7 9 9 9 9 9 8 9
6 5 5 5 5 5 5 6 6 6 5 5 5 5 6 6 6 7 7 7 9 9 10 10 12 15 17 14 17 21 22 20 18 15 9 8 8 9 9 9 11 10 10
Wind_Direction
301 314 314 319 337 309 315 325 314 311 325 337 341 338 331 336 339 342 329 319 312 301 295 287 280 269 252 244 239 234 231 223 235 244 225 212 199 207 193 198 196 189 199
317 320 312 322 324 325 339 338 331 324 330 330 335 335 335 338 341 336 328 330 323 314 303 296 290 289 276 258 247 242 236 226 224 237 232 213 211 205 195 198 196 196 195
314 298 305 321 328 335 337 353 340 335 338 332 336 336 335 339 346 344 344 336 324 318 313 310 300 291 279 274 264 252 246 241 228 227 232 217 212 201 194 199 196 193 197
321 291 303 329 333 344 355 350 338 332 327 328 340 337 340 346 352 356 347 332 324 320 313 309 304 291 277 280 275 265 255 248 240 230 226 218 211 201 190 196 198 195 195
266 284 309 334 324 350 336 331 335 332 333 339 343 339 345 341 356 359 340 329 322 317 313 311 308 297 289 281 278 275 270 254 251 238 230 221 211 193 199 192 197 189 194
220 228 193 251 325 340 320 334 333 317 312 324 329 332 332 336 343 343 338 323 316 314 315 315 310 301 293 279 272 268 257 251 247 240 233 226 220 207 200 196 190 184 199
232 214 166 173 276 295 304 309 294 292 300 311 313 316 314 317 323 333 337 323 307 310 316 320 323 332 341 323 291 276 265 254 240 236 240 235 226 213 199 200 198 192 192
215 172 166 192 219 243 261 273 276 286 304 302 298 298 298 307 323 336 338 320 308 313 322 331 335 349 5 356 333 314 296 275 251 237 236 242 239 223 204 203 199 184 162
180 161 196 216 222 236 254 267 274 276 282 288 290 283 285 287 292 329 340 313 312 320 331 343 344 350 353 349 333 319 315 306 289 251 244 248 247 235 207 186 181 180 189
186 174 190 217 239 245 249 258 269 274 272 279 282 275 272 274 231 280 337 314 321 328 327 334 356 355 345 344 328 316 316 319 326 306 271 262 248 230 212 203 195 190 178
152 167 209 238 246 245 242 245 258 266 271 273 279 274 263 249 213 206 262 299 314 320 323 326 331 343 341 335 324 301 298 303 301 294 281 259 248 226 213 207 201 194 186
236 212 231 241 250 256 237 236 242 253 264 269 269 273 260 229 200 203 224 255 282 292 300 309 318 327 325 320 312 298 301 307 294 290 284 274 261 240 215 205 200 196 187
293 254 241 241 241 239 238 239 240 241 246 258 264 269 267 237 199 207 223 250 269 273 284 298 301 298 303 304 292 294 298 291 283 285 286 278 268 253 208 178 159 141 129
310 295 277 264 257 244 231 229 233 238 244 253 260 266 268 254 233 187 207 253 273 286 299 305 301 284 277 279 287 284 274 272 274 278 278 284 303 7 184 160 148 138 131
323 313 305 294 282 272 256 235 233 231 228 232 241 246 259 266 215 175 192 249 314 332 326 307 295 280 263 261 269 267 275 285 281 279 285 287 265 120 119 140 144 143 147
335 332 329 324 319 312 299 286 255 245 247 239 235 236 245 243 206 203 215 232 257 290 309 289 291 288 277 264 266 269 264 261 254 239 241 215 200 178 156 133 141 149 150
338 342 339 331 325 318 312 305 301 287 264 255 250 246 243 247 238 227 228 240 262 265 257 265 272 274 274 264 253 248 248 242 219 209 218 214 189 173 162 159 157 153 152
344 354 349 331 323 318 314 310 306 303 301 285 257 245 243 243 241 237 230 234 263 240 235 248 258 261 263 263 254 243 235 228 211 206 203 203 194 183 174 174 171 169 162
347 353 340 325 321 325 328 326 322 319 315 310 306 282 249 244 243 238 206 218 244 253 252 250 249 250 249 251 248 242 232 221 211 204 205 200 197 190 187 182 177 174 169
341 352 350 337 342 350 346 342 343 344 343 343 341 343 1 30 233 221 209 224 238 248 252 257 254 250 247 245 243 238 237 231 219 212 208 202 199 194 191 187 181 178 180
347 352 355 356 359 358 350 350 354 354 354 353 350 351 357 346 312 292 262 232 234 241 247 250 251 247 243 243 240 237 237 236 228 218 211 203 197 196 193 186 183 182 178
350 355 355 357 356 358 352 356 1 1 359 358 355 358 3 4 359 357 350 343 331 308 286 270 259 249 239 234 233 236 240 237 232 226 218 208 199 195 192 189 186 184 183
347 354 355 354 355 354 356 357 358 359 358 359 1 3 4 3 2 1 359 358 357 354 350 340 325 308 290 266 249 238 240 242 236 228 223 216 206 199 195 195 193 189 188
337 346 346 346 350 350 349 351 353 354 354 355 356 358 357 355 355 356 358 360 359 357 356 353 351 348 343 331 305 281 278 277 264 246 232 223 214 207 200 199 196 194 192
326 332 333 334 337 336 334 336 337 342 344 345 347 349 347 346 346 347 349 354 353 350 351 352 352 349 344 344 349 347 332 314 301 291 268 240 225 215 208 204 199 195 193
314 319 322 323 323 323 321 322 322 325 325 327 329 329 329 331 332 334 338 342 342 340 340 340 340 344 343 348 348 345 346 341 325 305 285 266 244 229 217 211 204 200 195
Height
1512 1511 1510 1508 1506 1504 1502 1500 1498 1496 1495 1493 1491 1488 1486 1485 1483 1481 1479 1478 1477 1476 1475 1474 1474 1473 1473 1473 1474 1475 1477 1478 1479 1480 1482 1485 1486 1489 1491 1495 1498 1501 1504
1511 1510 1508 1507 1505 1503 1501 1499 1497 1495 1493 1491 1489 1487 1485 1483 1482 1479 1478 1476 1474 1473 1472 1471 1470 1470 1469 1469 1469 1470 1471 1473 1474 1475 1477 1479 1481 1483 1486 1489 1491 1495 1498
1510 1508 1507 1506 1504 1502 1500 1498 1496 1494 1492 1490 1488 1486 1484 1482 1480 1478 1476 1474 1472 1470 1469 1468 1467 1466 1465 1465 1465 1465 1466 1467 1469 1470 1471 1473 1475 1478 1481 1483 1486 1488 1492
1509 1507 1506 1504 1503 1501 1499 1496 1494 1492 1490 1489 1487 1484 1482 1480 1478 1475 1473 1471 1469 1468 1466 1465 1463 1462 1461 1462 1461 1462 1462 1463 1464 1465 1466 1468 1470 1472 1475 1477 1480 1482 1485
1508 1506 1505 1503 1501 1500 1497 1495 1493 1491 1489 1487 1485 1483 1480 1478 1476 1474 1471 1469 1467 1465 1463 1462 1460 1459 1458 1458 1458 1458 1458 1458 1459 1460 1461 1463 1465 1467 1469 1471 1474 1476 1479
1507 1505 1504 1502 1500 1498 1496 1494 1492 1490 1488 1486 1484 1481 1479 1476 1474 1472 1469 1466 1464 1463 1461 1459 1458 1457 1456 1455 1455 1455 1455 1455 1455 1456 1457 1458 1459 1461 1464 1466 1469 1471 1474
1505 1504 1503 1501 1499 1497 1495 1493 1491 1489 1487 1485 1482 1480 1477 1475 1473 1470 1468 1465 1463 1461 1459 1458 1456 1455 1454 1453 1452 1452 1452 1452 1452 1452 1452 1453 1455 1457 1459 1461 1463 1465 1467
1504 1503 1501 1500 1498 1496 1494 1492 1490 1488 1486 1483 1481 1479 1476 1474 1471 1469 1467 1464 1462 1460 1458 1456 1455 1453 1452 1451 1450 1449 1449 1448 1448 1448 1449 1449 1451 1452 1454 1456 1458 1461 1464
1502 1501 1500 1498 1496 1495 1492 1491 1489 1486 1484 1482 1480 1477 1475 1473 1470 1468 1465 1463 1460 1459 1457 1455 1453 1452 1451 1449 1448 1447 1446 1446 1446 1445 1445 1446 1446 1448 1449 1452 1454 1456 1458
1500 1499 1497 1496 1495 1493 1491 1489 1487 1485 1482 1480 1478 1476 1474 1471 1469 1467 1464 1461 1459 1457 1455 1454 1452 1450 1449 1448 1446 1445 1444 1444 1443 1443 1442 1442 1443 1443 1445 1446 1448 1450 1452
1497 1496 1495 1494 1492 1490 1488 1487 1485 1482 1480 1478 1476 1474 1472 1470 1468 1466 1463 1460 1458 1456 1454 1452 1451 1449 1447 1446 1445 1444 1443 1442 1441 1440 1440 1439 1439 1439 1440 1441 1443 1445 1447
1494 1493 1492 1490 1489 1487 1486 1484 1482 1480 1478 1476 1474 1472 1471 1469 1466 1464 1462 1459 1457 1455 1453 1451 1449 1448 1446 1445 1443 1442 1441 1440 1439 1438 1437 1436 1436 1436 1436 1437 1438 1440 1443
1491 1489 1488 1486 1485 1483 1482 1480 1478 1477 1475 1473 1472 1470 1468 1467 1464 1462 1460 1458 1456 1454 1452 1450 1448 1447 1445 1444 1443 1441 1440 1439 1438 1437 1435 1434 1433 1433 1433 1433 1434 1436 1439
1487 1485 1484 1483 1481 1480 1478 1476 1475 1473 1472 1470 1469 1467 1465 1464 1462 1460 1458 1456 1454 1452 1450 1448 1447 1445 1444 1443 1442 1440 1439 1438 1436 1435 1434 1432 1431 1430 1430 1430 1432 1433 1435
1483 1481 1480 1479 1477 1476 1474 1473 1471 1469 1468 1467 1465 1464 1462 1460 1459 1457 1456 1454 1452 1450 1448 1447 1445 1444 1443 1441 1440 1439 1438 1436 1435 1434 1432 1431 1430 1429 1428 1428 1429 1431 1433
1479 1477 1476 1474 1472 1471 1469 1467 1466 1465 1464 1463 1461 1460 1458 1457 1455 1454 1452 1451 1449 1447 1446 1444 1443 1442 1441 1440 1439 1437 1436 1435 1433 1432 1431 1430 1429 1428 1428 1428 1428 1430 1431
1476 1474 1472 1470 1468 1466 1464 1463 1461 1460 1459 1458 1457 1455 1454 1453 1451 1450 1448 1447 1446 1444 1443 1441 1440 1440 1439 1438 1437 1436 1434 1433 1432 1431 1430 1429 1429 1428 1428 1428 1428 1429 1430
1474 1472 1469 1467 1465 1463 1461 1459 1457 1455 1454 1452 1452 1451 1450 1448 1447 1446 1444 1443 1442 1441 1439 1438 1437 1437 1436 1435 1435 1434 1433 1432 1430 1430 1429 1428 1428 1427 1427 1427 1428 1429 1430
1472 1469 1467 1465 1462 1460 1458 1456 1454 1453 1451 1449 1448 1446 1445 1443 1443 1442 1440 1439 1438 1437 1436 1435 1434 1434 1433 1432 1432 1431 1430 1429 1428 1428 1427 1427 1426 1426 1426 1426 1427 1428 1429
1470 1469 1466 1464 1461 1459 1456 1454 1452 1450 1448 1446 1445 1443 1441 1439 1438 1438 1437 1436 1434 1433 1432 1431 1431 1430 1429 1429 1428 1428 1427 1426 1426 1425 1424 1424 1424 1424 1424 1425 1425 1426 1427
1470 1468 1466 1463 1461 1458 1456 1454 1452 1449 1447 1445 1443 1441 1439 1437 1436 1435 1434 1432 1431 1429 1428 1427 1426 1426 1425 1425 1424 1423 1423 1422 1422 1422 1421 1421 1421 1421 1422 1423 1424 1425 1426
1469 1467 1465 1463 1461 1458 1456 1454 1452 1449 1447 1444 1442 1439 1437 1435 1433 1431 1430 1429 1427 1426 1424 1423 1422 1421 1421 1420 1419 1419 1418 1418 1417 1417 1417 1417 1417 1418 1419 1419 1420 1422 1423
1468 1467 1465 1463 1461 1459 1456 1454 1452 1449 1447 1444 1441 1438 1435 1433 1431 1429 1426 1424 1422 1421 1419 1418 1417 1416 1415 1415 1414 1414 1413 1413 1413 1413 1413 1413 1413 1413 1414 1415 1416 1418 1419
1468 1466 1465 1463 1461 1458 1456 1454 1452 1449 1446 1444 1441 1438 1435 1432 1430 1427 1424 1421 1419 1416 1415 1413 1411 1410 1409 1408 1408 1407 1407 1407 1407 1407 1407 1407 1407 1408 1408 1409 1411 1412 1414
1467 1465 1464 1462 1460 1458 1456 1453 1451 1448 1446 1443 1440 1437 1434 1431 1428 1425 1422 1419 1415 1413 1410 1408 1405 1403 1402 1400 1399 1399 1399 1399 1399 1399 1400 1400 1400 1401 1402 1403 1404 1406 1408
1465 1464 1462 1461 1459 1457 1454 1452 1450 1447 1444 1441 1439 1436 1432 1429 1426 1423 1419 1416 1412 1409 1406 1403 1400 1398 1395 1393 1391 1390 1389 1389 1389 1390 1390 1391 1392 1393 1394 1395 1397 1399 1401